[[{"header":{"parameterUnit":"m.s-1","parameterCategory":1,"la1":30.2991,"la2":30.254,"lo1":-89.0895,"lo2":-89.0444,"dy":0.0017,"dx":0.0017,"nx":28,"ny":28,"refTime":"2023-08-01T03:00:00:Z","depth":0,"parameterNumber":2,"parameterNumberName":"U-component_of_WINDS"},"data":[0,0,0,0,0,0,0,0,0,0,0,0,0,0,0,0,0,0,0,0,0,0,0,0,0,0,0,0,0,0,0,0,0,0,0,0,0,0,0,0,0,0,0,0,0,0,0,0,0,0,0,0,0,0,0,0,0,0,2.2643,2.2643,0,2.2601,2.26,2.26,2.2488,2.2486,2.2484,2.2481,2.2438,2.2439,2.244,0,0,0,0,0,0,0,0,0,0,0,0,0,2.263,2.2631,2.2643,2.2643,2.2642,2.2601,2.26,2.2599,2.2489,2.2486,2.2483,2.248,2.2437,2.2439,2.244,0,0,0,0,0,0,0,0,0,0,0,0,0,2.2617,2.2631,2.2643,2.2582,2.2576,2.2601,2.26,2.2599,2.2489,2.2486,2.2482,2.2479,2.2437,2.2438,2.244,2.2521,0,0,2.2445,2.2446,0,0,0,0,0,0,0,0,2.2618,2.2617,2.2591,2.2586,2.258,2.2546,2.2579,2.2573,2.249,2.2522,2.2481,2.2477,2.2477,2.2475,2.2475,2.2519,2.2517,2.2445,2.2446,2.2447,2.2447,0,0,0,0,0,0,0,2.2619,2.2619,2.2626,2.2591,2.2584,2.2557,2.2551,2.2578,2.252,2.2519,2.2511,2.2508,2.2473,2.2473,2.2473,2.2516,2.2445,2.2446,2.2447,2.2448,2.2628,2.2631,0,0,0,0,0,0,2.2628,2.262,2.2628,2.2625,2.259,2.256,2.2554,2.256,2.2519,2.251,2.2511,2.2502,2.2472,2.2471,2.2471,2.2564,2.2447,2.2448,2.2449,2.2624,2.2628,2.2633,0,0,0,0,0,0,2.2629,2.263,2.2629,2.262,2.2618,2.2564,2.2573,2.2562,2.2562,2.2513,2.2502,2.2522,2.247,2.2469,2.251,2.2561,2.2449,2.245,2.2619,2.2625,2.2631,2.2751,0,0,0,0,0,0,2.2629,2.2631,2.266,2.2622,2.2619,2.2669,2.2576,2.2563,2.2565,2.2554,2.252,2.2511,2.2467,2.2508,2.2512,2.2561,2.2451,2.2614,2.2622,2.2629,2.2743,2.276,2.2776,0,0,0,0,0,2.2629,2.2695,2.2662,2.2664,2.2655,2.2672,2.2671,2.2618,2.2569,2.2599,2.2568,2.2512,2.2555,2.2513,2.2516,2.2567,2.2611,2.262,2.2628,2.2735,2.2757,2.2775,0,0,0,0,0,0,2.2741,2.2689,2.2652,2.2708,2.2696,2.2653,2.2689,2.2642,2.2643,2.2632,2.2567,2.256,2.2611,2.2593,2.2547,2.2645,2.2574,2.2584,2.2654,2.2675,2.2691,2.2695,2.2453,0,0,0,0,0,2.2772,2.279,2.2744,2.2798,2.2794,2.2743,2.2749,2.2709,2.2693,2.2687,2.2659,2.2646,2.2656,2.2664,2.2671,2.274,2.2732,2.2776,2.2793,2.2807,2.2816,2.2853,2.2873,2.2661,2.2661,2.2661,0,0,2.2837,2.2811,2.2826,2.282,2.2806,2.2827,2.2739,2.2764,2.2779,2.2691,2.2728,2.2708,2.2689,2.2745,2.2768,2.2732,2.2873,2.2818,2.283,2.2831,2.2864,2.2884,2.2902,2.2667,2.2666,2.2665,0,0,2.2965,2.2947,2.2991,2.2979,2.2959,2.2925,2.2936,2.2902,2.2885,2.2922,2.2856,2.2874,2.2893,2.2883,2.288,2.3009,2.2959,2.3013,2.31,2.3137,2.3154,2.3168,2.3216,2.3233,2.3022,2.3023,2.3023,0,2.3048,2.3077,2.302,2.305,2.3051,2.2973,2.3018,2.3009,2.2992,2.2994,2.2953,2.2978,2.2959,2.3013,2.3045,2.3045,2.3056,2.3016,2.3156,2.317,2.3183,2.3227,2.3245,2.303,2.3029,2.3028,2.3027,0,2.3181,2.3202,2.324,2.3227,2.3231,2.3269,2.3219,2.3231,2.3192,2.3163,2.3203,2.3179,2.318,2.319,2.3152,2.3239,2.3217,2.3168,2.3095,2.3211,2.3251,2.3268,2.3039,2.3037,2.3035,2.3033,0,0,2.3377,2.3334,2.3349,2.3343,2.3316,2.3332,2.3367,2.3369,2.3381,2.3373,2.3401,2.3421,2.3375,2.3373,2.3333,2.3366,2.3471,2.3312,2.331,2.3343,2.3568,2.3606,2.3627,2.3438,2.3441,2.3443,2.357,0,2.3499,2.3556,2.3508,2.3574,2.3594,2.3522,2.3553,2.3541,2.3515,2.3529,2.35,2.3516,2.3454,2.3452,2.3481,2.3452,2.3516,2.3442,2.3465,2.3466,2.3472,2.3647,2.3687,2.3808,2.3585,2.3588,2.359,0,2.3649,2.3649,2.3718,2.3689,2.3696,2.3724,2.3724,2.3737,2.3723,2.3702,2.3701,2.3653,2.3687,2.3617,2.3663,2.3615,2.3621,2.3609,2.3612,2.3612,2.3535,2.3653,2.3844,2.3863,2.3614,2.3612,2.361,0,2.3787,2.3804,2.3848,2.3845,2.3812,2.3834,2.3822,2.3803,2.3809,2.3809,2.3812,2.3816,2.3818,2.3823,2.3778,2.3731,2.3831,2.3756,2.3815,2.3817,2.3839,2.3838,2.4035,2.3843,2.3843,2.3842,2.3842,0,2.3928,2.3974,2.391,2.3937,2.3986,2.3931,2.3981,2.3961,2.3946,2.3969,2.3907,2.393,2.3869,2.3886,2.3851,2.3896,2.3897,2.3882,2.3872,2.3888,2.389,2.3891,2.3882,2.3847,2.3846,2.3845,2.3844,0,2.409,2.4049,2.4092,2.4059,2.4051,2.409,2.4061,2.4085,2.4057,2.4087,2.4091,2.4046,2.4063,2.4019,2.4029,2.4006,2.407,2.4047,2.4076,2.4069,2.4131,2.4126,2.4335,2.436,2.4152,2.4154,2.4156,0,2.4183,2.4217,2.4187,2.4199,2.419,2.4208,2.4214,2.4161,2.417,2.4158,2.4184,2.4196,2.4203,2.4234,2.4203,2.4211,2.4187,2.426,2.4188,2.4203,2.4189,2.4188,2.4192,2.4275,2.4278,2.428,2.4281,0,2.4353,2.4332,2.4343,2.4348,2.4357,2.4358,2.4354,2.4367,2.4311,2.4324,2.4341,2.4347,2.4358,2.4372,2.4373,2.4361,2.4313,2.4305,2.4319,2.4335,2.4351,2.4344,2.4117,2.43,2.4298,2.4297,2.4296,2.4295,2.4484,2.4511,2.4496,2.4511,2.4503,2.4502,2.4524,2.4499,2.4513,2.4518,2.4487,2.4511,2.4498,2.4495,2.4488,2.4507,2.4474,2.4494,2.4499,2.4505,2.4516,2.4348,2.4507,2.4507,2.4506,2.4506,2.4505,0,2.4652,2.4639,2.4653,2.4652,2.4664,2.4618,2.4613,2.4627,2.4649,2.4641,2.465,2.4671,2.4684,2.4655,2.4664,2.4685,2.4664,2.4689,2.4687,2.4686,2.4545,2.4532,2.4707,2.4707,2.4707,2.4707,2.4707,2.4707,2.4741,2.4785,2.4763,2.4804,2.479,2.4814,2.4816,2.4815,2.4809,2.4835,2.4846,2.4827,2.4812,2.4819,2.483,2.4821,2.4828,2.4862,2.4846,2.4715,2.4695,2.4676,2.4664,2.4864,2.4864,2.4985,2.4986,2.4987]},{"header":{"parameterUnit":"m.s-1","parameterCategory":1,"la1":30.2991,"la2":30.254,"lo1":-89.0895,"lo2":-89.0444,"dy":0.0017,"dx":0.0017,"nx":28,"ny":28,"refTime":"2023-08-01T03:00:00:Z","depth":0,"parameterNumber":3,"parameterNumberName":"V-component_of_WINDS"},"data":[0,0,0,0,0,0,0,0,0,0,0,0,0,0,0,0,0,0,0,0,0,0,0,0,0,0,0,0,0,0,0,0,0,0,0,0,0,0,0,0,0,0,0,0,0,0,0,0,0,0,0,0,0,0,0,0,0,0,-2.6574,-2.6576,0,-2.6694,-2.6695,-2.6696,-2.6684,-2.6682,-2.668,-2.6679,-2.68,-2.6805,-2.681,0,0,0,0,0,0,0,0,0,0,0,0,0,-2.6336,-2.6341,-2.6574,-2.6576,-2.6577,-2.6693,-2.6695,-2.6697,-2.6685,-2.6682,-2.668,-2.6678,-2.6798,-2.6804,-2.681,0,0,0,0,0,0,0,0,0,0,0,0,0,-2.6446,-2.6342,-2.6574,-2.6585,-2.6587,-2.6693,-2.6695,-2.6697,-2.6685,-2.6682,-2.6679,-2.6677,-2.6796,-2.6804,-2.6811,-2.6913,0,0,-2.6834,-2.6837,0,0,0,0,0,0,0,0,-2.644,-2.6455,-2.6582,-2.6585,-2.6587,-2.6671,-2.6656,-2.6769,-2.6686,-2.6648,-2.6679,-2.6675,-2.6759,-2.677,-2.6798,-2.6918,-2.6924,-2.6834,-2.6839,-2.6842,-2.6844,0,0,0,0,0,0,0,-2.6432,-2.645,-2.6621,-2.6584,-2.6587,-2.6584,-2.6597,-2.6677,-2.6718,-2.6651,-2.665,-2.6665,-2.676,-2.6791,-2.6801,-2.6925,-2.6834,-2.6841,-2.6845,-2.6848,-2.7137,-2.714,0,0,0,0,0,0,-2.6422,-2.6443,-2.6618,-2.6625,-2.6505,-2.6591,-2.6605,-2.6647,-2.6717,-2.6725,-2.6667,-2.6664,-2.678,-2.6792,-2.6805,-2.693,-2.6842,-2.6849,-2.6853,-2.7134,-2.7138,-2.7141,0,0,0,0,0,0,-2.6417,-2.6438,-2.6613,-2.6534,-2.6556,-2.6598,-2.6645,-2.6651,-2.6682,-2.6729,-2.6736,-2.6691,-2.6778,-2.6795,-2.6887,-2.6934,-2.6852,-2.6859,-2.713,-2.7135,-2.714,-2.718,0,0,0,0,0,0,-2.641,-2.6436,-2.6475,-2.6535,-2.656,-2.6692,-2.6648,-2.6655,-2.6695,-2.6692,-2.6753,-2.6761,-2.6777,-2.6876,-2.6894,-2.6943,-2.6865,-2.7126,-2.7132,-2.7138,-2.7175,-2.7186,-2.7195,0,0,0,0,0,-2.6402,-2.6481,-2.6477,-2.6498,-2.661,-2.6695,-2.671,-2.6727,-2.6698,-2.6738,-2.6769,-2.6759,-2.6926,-2.6885,-2.6906,-2.6957,-2.7123,-2.7131,-2.7138,-2.717,-2.7184,-2.7195,0,0,0,0,0,0,-2.6424,-2.6489,-2.6485,-2.6586,-2.6635,-2.6693,-2.6743,-2.674,-2.6798,-2.6793,-2.6811,-2.6825,-2.6918,-2.6947,-2.69,-2.7061,-2.7021,-2.7032,-2.7038,-2.7052,-2.7062,-2.7053,-2.6871,0,0,0,0,0,-2.6441,-2.6505,-2.6558,-2.6642,-2.6667,-2.6701,-2.6739,-2.6748,-2.6799,-2.682,-2.6857,-2.6908,-2.6971,-2.7013,-2.7074,-2.7179,-2.7193,-2.7225,-2.7235,-2.7243,-2.7253,-2.7312,-2.7327,-2.7165,-2.7165,-2.7165,0,0,-2.6476,-2.652,-2.6559,-2.6648,-2.6687,-2.6753,-2.6719,-2.6789,-2.6839,-2.6831,-2.692,-2.6949,-2.7007,-2.7106,-2.7151,-2.7133,-2.7301,-2.7252,-2.7258,-2.7264,-2.7321,-2.7336,-2.735,-2.717,-2.7169,-2.7168,0,0,-2.6575,-2.6614,-2.6689,-2.6729,-2.6789,-2.6811,-2.6829,-2.6888,-2.6908,-2.6998,-2.6994,-2.7052,-2.7162,-2.7203,-2.7239,-2.7355,-2.7348,-2.7374,-2.7427,-2.7484,-2.7497,-2.7509,-2.7551,-2.7566,-2.7384,-2.7384,-2.7384,0,-2.6611,-2.671,-2.6727,-2.68,-2.6839,-2.6836,-2.6913,-2.6951,-2.7028,-2.7055,-2.7033,-2.7172,-2.721,-2.7319,-2.7348,-2.7376,-2.7398,-2.7367,-2.7494,-2.7506,-2.7517,-2.7557,-2.7573,-2.7387,-2.7386,-2.7386,-2.7386,0,-2.6752,-2.6821,-2.6875,-2.695,-2.6996,-2.707,-2.7098,-2.7143,-2.7148,-2.7173,-2.7266,-2.7312,-2.7383,-2.741,-2.7415,-2.7521,-2.7508,-2.749,-2.745,-2.7535,-2.7573,-2.7589,-2.7391,-2.739,-2.7389,-2.7388,0,0,-2.6867,-2.6952,-2.6972,-2.7006,-2.7073,-2.7127,-2.7201,-2.7272,-2.731,-2.7363,-2.7426,-2.752,-2.7504,-2.7545,-2.7555,-2.7605,-2.7696,-2.7581,-2.7583,-2.7602,-2.7816,-2.7829,-2.7847,-2.7692,-2.7695,-2.7697,-2.7811,0,-2.6972,-2.7104,-2.7122,-2.7239,-2.7304,-2.7302,-2.7367,-2.7415,-2.7441,-2.75,-2.7528,-2.7594,-2.7568,-2.7593,-2.7642,-2.7674,-2.7739,-2.7666,-2.7751,-2.7754,-2.7737,-2.7867,-2.7881,-2.7986,-2.7826,-2.7829,-2.7831,0,-2.7112,-2.7171,-2.7294,-2.7354,-2.7381,-2.7439,-2.7506,-2.7562,-2.7617,-2.7633,-2.7679,-2.7683,-2.7761,-2.7718,-2.7826,-2.7776,-2.7812,-2.7833,-2.7837,-2.7846,-2.7798,-2.788,-2.802,-2.8036,-2.7854,-2.7852,-2.7851,0,-2.7185,-2.7294,-2.7383,-2.7412,-2.7484,-2.7525,-2.7556,-2.7609,-2.765,-2.7709,-2.7736,-2.7803,-2.7839,-2.7891,-2.7914,-2.788,-2.802,-2.7979,-2.8036,-2.8035,-2.8065,-2.8063,-2.8214,-2.8088,-2.8087,-2.8087,-2.8087,0,-2.7301,-2.7376,-2.7416,-2.7471,-2.7556,-2.7577,-2.766,-2.769,-2.7738,-2.7798,-2.7801,-2.7857,-2.7884,-2.7945,-2.7963,-2.805,-2.8067,-2.8082,-2.8086,-2.8082,-2.808,-2.8106,-2.8099,-2.8091,-2.809,-2.8089,-2.8089,0,-2.7396,-2.7425,-2.7522,-2.7582,-2.7599,-2.7659,-2.7711,-2.7764,-2.779,-2.7866,-2.7886,-2.7926,-2.7998,-2.8026,-2.8114,-2.8126,-2.8227,-2.8225,-2.8209,-2.821,-2.8265,-2.826,-2.8439,-2.8464,-2.832,-2.8321,-2.8322,0,-2.7468,-2.7526,-2.7593,-2.7634,-2.7668,-2.7733,-2.7776,-2.78,-2.7844,-2.7913,-2.7958,-2.803,-2.8089,-2.8204,-2.8242,-2.8309,-2.8309,-2.8367,-2.8319,-2.8314,-2.8311,-2.8308,-2.8314,-2.8376,-2.8377,-2.8379,-2.838,0,-2.7593,-2.7605,-2.7667,-2.7735,-2.7787,-2.7841,-2.7894,-2.7927,-2.7959,-2.8009,-2.8083,-2.8129,-2.822,-2.8292,-2.8362,-2.8394,-2.8393,-2.8395,-2.8411,-2.8408,-2.8397,-2.8405,-2.8234,-2.839,-2.8389,-2.8388,-2.8388,-2.8387,-2.7679,-2.7732,-2.7788,-2.7857,-2.79,-2.7949,-2.8003,-2.8036,-2.8098,-2.8174,-2.8184,-2.8264,-2.8319,-2.8413,-2.8449,-2.8512,-2.8497,-2.8521,-2.8527,-2.8533,-2.8538,-2.8386,-2.8525,-2.8525,-2.8524,-2.8524,-2.8524,0,-2.7805,-2.7842,-2.7905,-2.798,-2.8035,-2.8029,-2.8088,-2.8134,-2.8205,-2.8256,-2.8315,-2.8401,-2.8472,-2.8515,-2.8586,-2.8628,-2.8629,-2.8646,-2.8643,-2.8651,-2.8547,-2.8525,-2.8644,-2.8644,-2.8644,-2.8644,-2.8644,-2.8644,-2.7877,-2.7966,-2.7985,-2.8096,-2.8132,-2.821,-2.8245,-2.8291,-2.8333,-2.8429,-2.8488,-2.8516,-2.8565,-2.864,-2.8704,-2.8715,-2.8741,-2.876,-2.877,-2.8671,-2.8658,-2.8647,-2.8627,-2.8765,-2.8765,-2.8869,-2.887,-2.8871]}]]